Change the Weather History Date:

Thursday, September 5, 2013

  Actual Average Record
Temperature  
Mean Temperature 79 °F 73 °F  
Max Temperature 90 °F 84 °F 100 °F (1979)
Min Temperature 67 °F 62 °F 44 °F (1961)
Degree Days  
Heating Degree Days 0 0  
Month to date heating degree days 0 0  
Since 1 July heating degree days 0 0  
Cooling Degree Days 14 8  
Month to date cooling degree days 75 43  
Year to date cooling degree days 1450 1200  
Growing Degree Days 28 (Base 50)    
Moisture  
Dew Point 37 °F    
Average Humidity 26    
Maximum Humidity 37    
Minimum Humidity 15    
Precipitation  
Precipitation 0.00 in 0.04 in 0.47 in (1909)
Month to date precipitation 0.03 0.19  
Year to date precipitation 3.92 6.47  
Snow  
Snow 0.00 in - - ()
Month to date snowfall 0.0  
Since 1 July snowfall 0.0  
Since 1 September snowfall 0.0  
Snow Depth 0.00 in    
Sea Level Pressure  
Sea Level Pressure 30.02 in    
Wind  
Wind Speed 5 mph (NNW)    
Max Wind Speed 15 mph    
Max Gust Speed 21 mph    
Visibility 10 miles    
Events      
T = Trace of Precipitation, MM = Missing Value Source: NWS Daily Summary

Daily Weather History Graph

Daily Weather History Graph

Search for Another Location

Airport or City:

Trip Planner

Search our weather history database for the weather conditions in past years. The results will help you decide how hot, cold, wet, or windy it might be!

Date:

Astronomy

Sep. 05, 2013 Rise Set
Actual Time 6:42 AM MDT 7:27 PM MDT
Civil Twilight 6:16 AM MDT 7:52 PM MDT
Nautical Twilight 5:46 AM MDT 8:23 PM MDT
Astronomical Twilight 5:15 AM MDT 8:54 PM MDT
Moon 6:54 AM MDT (9/5) 7:24 PM MDT (9/5)
Length of Visible Light 13h 36m
Length of Day
12h 44m
New Moon, 0% of the Moon is Illuminated
Sep 5
New Moon
Sep 12
First Quarter
Sep 19
Full
Sep 26
Last Quarter
Oct 4
New

Hourly Weather History & Observations

Time (MDT) Temp. Dew Point Humidity Pressure Visibility Wind Dir Wind Speed Gust Speed Precip Events Conditions
12:52 AM 77.0 °F 36.0 °F 23% 30.02 in 10.0 mi East 8.1 mph - N/A   Clear
1:52 AM 75.0 °F 36.0 °F 24% 30.03 in 10.0 mi WNW 4.6 mph - N/A   Clear
2:52 AM 73.0 °F 37.0 °F 27% 30.02 in 10.0 mi ENE 3.5 mph - N/A   Clear
3:52 AM 73.0 °F 37.0 °F 27% 30.01 in 10.0 mi Calm Calm - N/A   Clear
4:52 AM 69.1 °F 39.0 °F 33% 30.02 in 10.0 mi North 4.6 mph - N/A   Clear
5:52 AM 68.0 °F 39.9 °F 36% 30.04 in 10.0 mi NE 3.5 mph - N/A   Clear
6:52 AM 66.9 °F 39.9 °F 37% 30.06 in 10.0 mi Calm Calm - N/A   Clear
7:52 AM 68.0 °F 39.9 °F 36% 30.08 in 10.0 mi North 5.8 mph - N/A   Clear
8:52 AM 72.0 °F 42.1 °F 34% 30.09 in 10.0 mi NW 3.5 mph - N/A   Clear
9:52 AM 75.0 °F 42.1 °F 31% 30.09 in 10.0 mi NW 4.6 mph - N/A   Clear
10:52 AM 81.0 °F 39.9 °F 23% 30.08 in 10.0 mi Calm Calm - N/A   Partly Cloudy
11:52 AM 82.9 °F 39.9 °F 22% 30.06 in 10.0 mi West 4.6 mph - N/A   Partly Cloudy
12:52 PM 86.0 °F 39.9 °F 20% 30.03 in 10.0 mi NNW 4.6 mph - N/A   Partly Cloudy
1:52 PM 87.1 °F 37.9 °F 18% 30.01 in 10.0 mi Calm Calm - N/A   Partly Cloudy
2:52 PM 89.1 °F 37.9 °F 16% 29.98 in 10.0 mi WNW 10.4 mph - N/A   Partly Cloudy
3:52 PM 89.1 °F 37.9 °F 16% 29.96 in 10.0 mi SSW 11.5 mph - N/A   Partly Cloudy
4:52 PM 90.0 °F 37.0 °F 15% 29.95 in 10.0 mi West 9.2 mph - N/A   Partly Cloudy
5:52 PM 89.1 °F 36.0 °F 15% 29.94 in 10.0 mi WSW 6.9 mph - N/A   Partly Cloudy
6:52 PM 88.0 °F 35.1 °F 15% 29.95 in 10.0 mi Variable 3.5 mph - N/A   Partly Cloudy
7:52 PM 84.9 °F 35.1 °F 17% 29.96 in 10.0 mi SE 5.8 mph - N/A   Partly Cloudy
8:52 PM 78.1 °F 33.1 °F 19% 29.99 in 10.0 mi ESE 8.1 mph - N/A   Clear
9:52 PM 78.1 °F 33.1 °F 19% 30.01 in 10.0 mi East 5.8 mph - N/A   Clear
10:52 PM 79.0 °F 32.0 °F 18% 30.00 in 10.0 mi Calm Calm - N/A   Clear
11:52 PM 77.0 °F 33.1 °F 20% 30.01 in 10.0 mi SSE 8.1 mph - N/A   Clear